This is the latest recevied weather packets stored in our database for station/object I0UVN-10. If no packets are shown the sender has not sent any weather packets the latest 10 day(s).
| Time | Temp. | Humidity | Pressure | Rain* | Wind** | Luminosity | Snow |
|---|---|---|---|---|---|---|---|
| 1787860622 | 29.44° C | 60% | 1023.3 hPa | - | - | - | - |
| 1787859422 | 28.89° C | 63% | 1023.3 hPa | - | - | - | - |
| 1787858222 | 29.44° C | 65% | 1023.3 hPa | - | - | - | - |
| 1787857021 | 30° C | 64% | 1023.2 hPa | - | - | - | - |
| 1787855821 | 30° C | 63% | 1023 hPa | - | - | - | - |
| 1787854621 | 29.44° C | 64% | 1023.1 hPa | - | - | - | - |
| 1787853421 | 30° C | 64% | 1023.1 hPa | - | - | - | - |
| 1787852221 | 30° C | 63% | 1023.1 hPa | - | - | - | - |
| 1787851021 | 30.56° C | 62% | 1023 hPa | - | - | - | - |
| 1787849821 | 30.56° C | 61% | 1022.9 hPa | - | - | - | - |
| 1787848621 | 30.56° C | 61% | 1023 hPa | - | - | - | - |
| 1787847421 | 30.56° C | 60% | 1022.8 hPa | - | - | - | - |
| 1787846219 | 30.56° C | 60% | 1022.9 hPa | - | - | - | - |
| 1787845046 | 30.56° C | 60% | 1022.9 hPa | - | - | - | - |
| 1787843845 | 30.56° C | 59% | 1022.8 hPa | - | - | - | - |
| 1787842645 | 30.56° C | 58% | 1022.8 hPa | - | - | - | - |
| 1787841444 | 30.56° C | 56% | 1022.9 hPa | - | - | - | - |
| 1787840243 | 31.11° C | 53% | 1022.8 hPa | - | - | - | - |
| 1787839043 | 31.11° C | 47% | 1022.6 hPa | - | - | - | - |
| 1787837842 | 30.56° C | 45% | 1022.6 hPa | - | - | - | - |
| 1787836684 | 30.56° C | 47% | 1022.6 hPa | - | - | - | - |
| 1787836641 | 30.56° C | 47% | 1022.6 hPa | - | - | - | - |
| 1787835440 | 30.56° C | 47% | 1022.7 hPa | - | - | - | - |
| 1787834235 | 30.56° C | 46% | 1022.6 hPa | - | - | - | - |
| 1787833035 | 30.56° C | 48% | 1022.6 hPa | - | - | - | - |
* Rain since midnight (hover to see other rain measurements)
** Current wind speed in m/s (hover to see current wind gust speed)